Regional Weather Roundup
Issued by NWS

Home | Current Version | Previous Version | Graphics & Text | Print | Product List | Glossary On
Versions: 1 2 3 4 5 6 7 8 9 10 11 12 13 14 15 16 17 18 19 20 21 22 23 24 25 26 27 28 29 30 31 32 33 34 35 36 37 38 39 40 41 42 43 44 45 46 47 48 49 50
000
ASUS43 KLOT 291702
RWRIL

ILLINOIS REGIONAL WEATHER ROUNDUP
NATIONAL WEATHER SERVICE CHICAGO/ROMEOVILLE IL
1200 PM CDT SUN MAR 29 2015

NOTE: "FAIR" INDICATES FEW OR NO CLOUDS BELOW 12,000 FEET WITH NO
SIGNIFICANT WEATHER AND/OR OBSTRUCTIONS TO VISIBILITY.

* THESE STATIONS ARE NOT UNDER NWS QUALITY CONTROL. THEY ALSO MAY NOT
  REPORT WEATHER SUCH AS PRECIPITATION OR FOG.

ILZ001-002-007-009-015-016-024-291800-
NORTHWEST ILLINOIS

CITY           SKY/WX    TMP DP  RH WIND       PRES   REMARKS
MOLINE         PTSUNNY   38  31  76 SW18G32   29.89F WCI  28
STERLING*      CLOUDY    34  27  75 SW7       29.91F WCI  28
$$

ILZ003-004-008-010-011-017-018-291800-
NORTH CENTRAL ILLINOIS

CITY           SKY/WX    TMP DP  RH WIND       PRES   REMARKS
ROCKFORD       LGT RAIN  33  27  78 S23G32    29.91F WCI  21
$$

ILZ005-006-012>014-019>023-291800-
NORTHEAST ILLINOIS

CITY           SKY/WX    TMP DP  RH WIND       PRES   REMARKS
CHICAGO-OHARE  LGT RAIN  34  26  72 S24G32    29.92F WCI  21
CHICAGO-MIDWAY LGT RAIN  37  25  61 S22G32    29.95F WCI  26
AURORA         LGT RAIN  35  26  69 S18G31    29.94F WCI  24
WAUKEGAN       LGT RAIN  35  27  72 S21G35    29.89F WCI  24
DUPAGE AIRPORT LGT RAIN  34  27  75 S23G33    29.94F WCI  22
WHEELING       LGT RAIN  35  26  69 S21G28    29.93F WCI  24
NORTHERLY ISL    N/A     37  24  60 S17         N/A  WCI  27
$$

LMZ740>746-291800-
SOUTHERN LAKE MICHIGAN

STATION/POSITION SKY/WX   TEMP    WIND        PRES    VSBY  WAVE
                          AIR SEA DIR/SP/G                  HT/PER
                          (F)     (DEG/KT/KT) (MB)    (MI)  (FT/S)
HARRISON CRIB              38     180/ 35/ 43   N/A
BURNHAM HARBOR             36     180/ 19/ 27   N/A
CALUMET HARBOR             39     170/ 18/ 30 1014.9F
BURNS HARBOR               38     190/ 22     1017.3F
MICHIGAN CITY              38     150/ 21/ 26   N/A
$$

ILZ025>027-034>036-040-047-049-050-058-095>099-291800-
WEST-CENTRAL ILLINOIS

CITY           SKY/WX    TMP DP  RH WIND       PRES   REMARKS
QUINCY         MOSUNNY   50  31  48 SW17G25   29.96S
$$

ILZ028>032-037-038-041>044-048-051>054-059>061-291800-
CENTRAL ILLINOIS

CITY           SKY/WX    TMP DP  RH WIND       PRES   REMARKS
DECATUR        CLOUDY    40  28  62 S20       30.04F
PEORIA         CLOUDY    37  28  70 S22G29    29.98R WCI  26
LINCOLN*       CLOUDY    40  29  64 S25G33    29.99F
SPRINGFIELD    CLOUDY    42  26  53 S25G37    29.98F
TAYLORVILLE    NOT AVBL
$$

ILZ033-039-045-046-055>057-062-063-291800-
EAST-CENTRAL ILLINOIS

CITY           SKY/WX    TMP DP  RH WIND       PRES   REMARKS
CHAMPAIGN      LGT RAIN  38  27  64 S22       30.05F WCI  27
MATTOON        PTSUNNY   43  21  41 S22G33    30.09F
$$

ILZ079-100>102-291800-
SOUTHWEST ILLINOIS

CITY           SKY/WX    TMP DP  RH WIND       PRES   REMARKS
BELLEVILLE     PTSUNNY   51  26  37 S10G23    30.08F
CAHOKIA*       PTSUNNY   54  27  35 S17       30.07F
$$

ILZ064>066-069>071-074>076-080>082-084>086-088>090-092>094-291800-
SOUTH-CENTRAL ILLINOIS

CITY           SKY/WX    TMP DP  RH WIND       PRES   REMARKS
CARBONDALE     SUNNY     53  25  33 S20G29    30.16F
MARION         MOSUNNY   52  27  37 S17       30.18F
MT. VERNON     SUNNY     52  25  35 S17G23    30.16F
$$

ILZ067-068-072-073-078-083-087-091-291800-
SOUTHEAST ILLINOIS

CITY           SKY/WX    TMP DP  RH WIND       PRES   REMARKS
LAWRENCEVILLE  SUNNY     49  24  37 S22G29    30.21F
$$

ABBREVIATIONS USED IN REMARKS
   TC - TEMPERATURE IN CELSIUS
  WCI - WIND CHILL INDEX
   HX - HEAT INDEX
  VSB - VISIBILITY
$$



USA.gov is the U.S. government's official web portal to all federal, state and local government web resources and services.